QPF
0.02 0.02 0.03 0.02 0.02 0.02 0.01 0.01 0.01 0.01 0.01 0.01 0.01 0.01 0.01 0.01 0.02 0.03 0.03 0.03 0.03 0.04 0.04 0.05 0.05 0.05 0.06 0.06 0.06 0.05 0.05 0.04 0.03 0.02 0.02 0.02 0.03 0.03 0.03 0.04 0.03 0.03 0.03
0.01 0.01 0.02 0.02 0.02 0.02 0.01 0.01 0.01 0.01 0.01 0.01 0.01 0.01 0.01 0.01 0.01 0.02 0.02 0.03 0.03 0.03 0.03 0.04 0.04 0.04 0.05 0.05 0.05 0.05 0.04 0.04 0.04 0.04 0.03 0.03 0.02 0.03 0.03 0.03 0.03 0.03 0.03
0.00 0.01 0.01 0.01 0.01 0.02 0.01 0.01 0.01 0.01 0.01 0.01 0.00 0.00 0.01 0.01 0.01 0.01 0.02 0.02 0.02 0.02 0.03 0.03 0.03 0.03 0.04 0.04 0.04 0.04 0.04 0.04 0.04 0.04 0.04 0.03 0.03 0.03 0.03 0.03 0.03 0.03 0.02
0.00 0.00 0.01 0.01 0.01 0.01 0.01 0.01 0.01 0.01 0.01 0.01 0.01 0.01 0.00 0.00 0.01 0.01 0.01 0.01 0.01 0.02 0.02 0.02 0.03 0.03 0.02 0.03 0.03 0.03 0.03 0.04 0.04 0.04 0.04 0.04 0.04 0.03 0.03 0.03 0.03 0.03 0.03
0.00 0.00 0.00 0.00 0.01 0.01 0.01 0.01 0.01 0.02 0.01 0.01 0.01 0.01 0.01 0.00 0.00 0.01 0.01 0.01 0.01 0.01 0.02 0.02 0.02 0.02 0.02 0.02 0.02 0.03 0.03 0.04 0.04 0.04 0.04 0.04 0.05 0.05 0.05 0.04 0.03 0.03 0.03
0.00 0.00 0.00 0.00 0.01 0.01 0.01 0.01 0.01 0.02 0.02 0.02 0.02 0.01 0.01 0.01 0.01 0.01 0.01 0.01 0.01 0.02 0.02 0.02 0.02 0.02 0.02 0.02 0.02 0.02 0.02 0.03 0.03 0.03 0.03 0.03 0.03 0.03 0.04 0.04 0.04 0.04 0.05
0.00 0.00 0.00 0.00 0.00 0.01 0.01 0.01 0.01 0.01 0.02 0.02 0.03 0.03 0.02 0.02 0.02 0.02 0.02 0.01 0.01 0.01 0.02 0.02 0.02 0.02 0.02 0.01 0.02 0.02 0.02 0.02 0.02 0.02 0.02 0.02 0.02 0.02 0.03 0.03 0.04 0.05 0.04
0.00 0.00 0.00 0.00 0.00 0.01 0.01 0.01 0.01 0.01 0.01 0.01 0.02 0.02 0.03 0.03 0.03 0.02 0.02 0.02 0.01 0.01 0.01 0.02 0.02 0.02 0.02 0.02 0.02 0.02 0.02 0.02 0.02 0.02 0.01 0.02 0.02 0.03 0.04 0.04 0.05 0.05 0.05
0.00 0.00 0.00 0.00 0.00 0.00 0.00 0.00 0.00 0.01 0.01 0.01 0.01 0.01 0.01 0.02 0.03 0.03 0.03 0.02 0.02 0.01 0.01 0.01 0.01 0.02 0.02 0.02 0.02 0.02 0.02 0.02 0.02 0.01 0.01 0.02 0.03 0.03 0.04 0.04 0.05 0.05 0.06
0.00 0.00 0.00 0.00 0.00 0.00 0.00 0.00 0.00 0.00 0.00 0.01 0.01 0.01 0.01 0.01 0.02 0.03 0.03 0.03 0.02 0.02 0.01 0.01 0.02 0.02 0.02 0.02 0.02 0.02 0.02 0.02 0.02 0.02 0.02 0.02 0.03 0.03 0.03 0.03 0.03 0.04 0.04
0.00 0.00 0.00 0.00 0.00 0.01 0.01 0.01 0.00 0.00 0.00 0.00 0.01 0.01 0.01 0.01 0.01 0.01 0.02 0.03 0.03 0.03 0.02 0.02 0.02 0.02 0.02 0.02 0.02 0.02 0.02 0.02 0.02 0.03 0.03 0.03 0.04 0.03 0.03 0.03 0.03 0.03 0.03
0.00 0.00 0.00 0.00 0.00 0.01 0.01 0.00 0.00 0.00 0.00 0.00 0.01 0.01 0.01 0.01 0.01 0.01 0.02 0.02 0.02 0.03 0.02 0.02 0.02 0.02 0.02 0.02 0.02 0.02 0.02 0.02 0.03 0.03 0.04 0.04 0.04 0.04 0.03 0.03 0.03 0.03 0.03
0.00 0.00 0.00 0.00 0.00 0.00 0.01 0.00 0.00 0.00 0.00 0.00 0.01 0.01 0.01 0.01 0.01 0.01 0.01 0.01 0.01 0.02 0.02 0.02 0.02 0.02 0.02 0.02 0.03 0.03 0.03 0.04 0.04 0.05 0.04 0.03 0.03 0.03 0.03 0.04 0.04 0.04 0.03
0.00 0.00 0.00 0.00 0.01 0.01 0.01 0.00 0.00 0.00 0.00 0.00 0.00 0.01 0.00 0.00 0.00 0.01 0.01 0.01 0.01 0.01 0.01 0.01 0.01 0.02 0.02 0.03 0.03 0.03 0.03 0.04 0.05 0.04 0.04 0.03 0.03 0.03 0.03 0.03 0.03 0.03 0.04
0.00 0.00 0.00 0.01 0.01 0.01 0.01 0.01 0.00 0.00 0.00 0.01 0.01 0.01 0.01 0.01 0.01 0.01 0.01 0.01 0.01 0.01 0.02 0.02 0.02 0.02 0.03 0.03 0.03 0.02 0.03 0.03 0.04 0.04 0.03 0.03 0.03 0.03 0.03 0.03 0.03 0.03 0.03
0.00 0.00 0.00 0.01 0.01 0.01 0.01 0.01 0.01 0.01 0.01 0.01 0.01 0.01 0.01 0.01 0.01 0.01 0.01 0.02 0.02 0.02 0.02 0.02 0.02 0.02 0.02 0.02 0.02 0.02 0.02 0.02 0.03 0.03 0.03 0.03 0.02 0.03 0.03 0.03 0.03 0.03 0.03
0.00 0.00 0.00 0.01 0.01 0.01 0.01 0.01 0.01 0.01 0.01 0.01 0.01 0.01 0.01 0.01 0.01 0.01 0.01 0.02 0.02 0.02 0.02 0.02 0.01 0.01 0.01 0.01 0.01 0.01 0.02 0.02 0.02 0.02 0.02 0.02 0.02 0.02 0.02 0.02 0.03 0.03 0.03
0.01 0.01 0.01 0.01 0.01 0.01 0.01 0.01 0.01 0.01 0.01 0.01 0.01 0.01 0.01 0.01 0.01 0.01 0.02 0.02 0.03 0.03 0.02 0.02 0.01 0.01 0.01 0.01 0.01 0.01 0.01 0.02 0.02 0.02 0.02 0.02 0.02 0.02 0.02 0.02 0.02 0.02 0.03
0.01 0.01 0.01 0.01 0.01 0.01 0.01 0.01 0.01 0.01 0.01 0.01 0.01 0.01 0.01 0.01 0.01 0.02 0.02 0.03 0.02 0.02 0.02 0.01 0.01 0.01 0.01 0.01 0.01 0.02 0.02 0.02 0.02 0.02 0.02 0.02 0.02 0.02 0.02 0.02 0.02 0.02 0.02
0.01 0.01 0.01 0.01 0.01 0.01 0.01 0.02 0.02 0.01 0.01 0.01 0.01 0.01 0.01 0.02 0.02 0.02 0.02 0.02 0.02 0.02 0.01 0.01 0.01 0.01 0.01 0.02 0.02 0.02 0.02 0.02 0.02 0.02 0.02 0.02 0.02 0.02 0.02 0.03 0.03 0.03 0.03
0.02 0.02 0.02 0.01 0.01 0.01 0.01 0.02 0.01 0.01 0.01 0.01 0.01 0.01 0.02 0.02 0.02 0.01 0.02 0.02 0.01 0.01 0.01 0.01 0.01 0.01 0.02 0.02 0.02 0.02 0.02 0.02 0.02 0.02 0.02 0.02 0.02 0.02 0.02 0.02 0.03 0.03 0.03
0.02 0.02 0.02 0.02 0.01 0.01 0.01 0.01 0.01 0.01 0.01 0.01 0.01 0.01 0.02 0.02 0.02 0.02 0.02 0.02 0.01 0.01 0.01 0.01 0.01 0.01 0.01 0.02 0.02 0.02 0.02 0.02 0.02 0.02 0.02 0.02 0.02 0.02 0.02 0.02 0.03 0.03 0.03
0.02 0.01 0.01 0.01 0.01 0.01 0.01 0.01 0.01 0.01 0.01 0.01 0.01 0.01 0.02 0.02 0.02 0.02 0.02 0.02 0.02 0.02 0.02 0.02 0.02 0.02 0.02 0.02 0.02 0.02 0.02 0.02 0.02 0.02 0.02 0.02 0.02 0.02 0.02 0.02 0.02 0.02 0.02
0.01 0.01 0.01 0.01 0.01 0.01 0.01 0.01 0.01 0.01 0.01 0.01 0.01 0.01 0.01 0.02 0.02 0.02 0.01 0.01 0.02 0.02 0.02 0.03 0.03 0.03 0.02 0.02 0.03 0.02 0.02 0.02 0.02 0.02 0.02 0.02 0.02 0.02 0.02 0.02 0.02 0.02 0.02
0.01 0.01 0.01 0.01 0.01 0.01 0.01 0.01 0.01 0.01 0.01 0.01 0.01 0.01 0.01 0.01 0.01 0.01 0.01 0.01 0.02 0.02 0.02 0.02 0.03 0.03 0.03 0.02 0.02 0.02 0.02 0.02 0.02 0.02 0.02 0.02 0.02 0.02 0.02 0.02 0.02 0.02 0.03
0.01 0.01 0.01 0.01 0.01 0.01 0.01 0.01 0.01 0.01 0.01 0.01 0.01 0.01 0.01 0.01 0.01 0.01 0.01 0.02 0.02 0.02 0.02 0.02 0.02 0.02 0.02 0.02 0.02 0.02 0.02 0.02 0.02 0.02 0.02 0.03 0.02 0.02 0.02 0.02 0.02 0.03 0.03
MSLP
1029.55 1029.82 1030.06 1030.27 1030.46 1030.62 1030.75 1030.86 1030.95 1031.03 1031.08 1031.12 1031.16 1031.18 1031.22 1031.26 1031.32 1031.39 1031.46 1031.53 1031.58 1031.59 1031.55 1031.47 1031.33 1031.16 1030.96 1030.79 1030.64 1030.55 1030.53 1030.58 1030.68 1030.81 1030.94 1031.04 1031.08 1031.05 1030.94 1030.76 1030.53 1030.27 1030.00
1029.99 1030.30 1030.57 1030.80 1031.00 1031.16 1031.30 1031.42 1031.51 1031.58 1031.62 1031.66 1031.68 1031.70 1031.73 1031.77 1031.84 1031.93 1032.04 1032.15 1032.24 1032.30 1032.30 1032.24 1032.13 1031.96 1031.77 1031.57 1031.41 1031.30 1031.27 1031.30 1031.39 1031.52 1031.65 1031.75 1031.80 1031.78 1031.67 1031.50 1031.27 1031.00 1030.72
1030.37 1030.71 1031.00 1031.25 1031.46 1031.64 1031.78 1031.90 1032.00 1032.07 1032.12 1032.15 1032.17 1032.18 1032.21 1032.25 1032.33 1032.44 1032.57 1032.71 1032.84 1032.94 1032.98 1032.95 1032.86 1032.71 1032.53 1032.34 1032.18 1032.07 1032.03 1032.06 1032.15 1032.28 1032.42 1032.53 1032.58 1032.56 1032.45 1032.27 1032.02 1031.74 1031.44
1030.68 1031.04 1031.35 1031.61 1031.84 1032.02 1032.18 1032.32 1032.43 1032.51 1032.57 1032.60 1032.62 1032.64 1032.66 1032.71 1032.80 1032.91 1033.06 1033.23 1033.38 1033.50 1033.57 1033.58 1033.51 1033.39 1033.22 1033.05 1032.90 1032.80 1032.77 1032.81 1032.90 1033.04 1033.18 1033.29 1033.34 1033.32 1033.21 1033.02 1032.76 1032.47 1032.15
1030.94 1031.31 1031.63 1031.89 1032.12 1032.33 1032.51 1032.66 1032.80 1032.90 1032.98 1033.03 1033.06 1033.08 1033.11 1033.16 1033.24 1033.36 1033.51 1033.68 1033.84 1033.98 1034.07 1034.10 1034.06 1033.96 1033.82 1033.67 1033.54 1033.45 1033.44 1033.48 1033.59 1033.72 1033.87 1033.98 1034.04 1034.02 1033.91 1033.72 1033.47 1033.18 1032.86
1031.16 1031.53 1031.84 1032.10 1032.34 1032.56 1032.76 1032.94 1033.11 1033.25 1033.35 1033.43 1033.47 1033.50 1033.53 1033.57 1033.64 1033.75 1033.89 1034.04 1034.20 1034.34 1034.44 1034.48 1034.45 1034.38 1034.27 1034.15 1034.04 1033.98 1033.98 1034.05 1034.16 1034.30 1034.45 1034.57 1034.63 1034.62 1034.53 1034.36 1034.14 1033.86 1033.57
1031.36 1031.71 1032.00 1032.26 1032.50 1032.73 1032.96 1033.18 1033.38 1033.55 1033.69 1033.79 1033.85 1033.88 1033.90 1033.93 1033.98 1034.06 1034.16 1034.29 1034.43 1034.55 1034.64 1034.68 1034.67 1034.62 1034.54 1034.46 1034.39 1034.36 1034.39 1034.47 1034.60 1034.76 1034.92 1035.05 1035.13 1035.14 1035.08 1034.95 1034.76 1034.54 1034.29
1031.54 1031.86 1032.13 1032.38 1032.63 1032.87 1033.13 1033.38 1033.62 1033.83 1033.99 1034.11 1034.18 1034.21 1034.21 1034.21 1034.22 1034.25 1034.31 1034.39 1034.49 1034.58 1034.65 1034.69 1034.69 1034.66 1034.62 1034.58 1034.56 1034.57 1034.64 1034.76 1034.92 1035.10 1035.28 1035.43 1035.54 1035.58 1035.56 1035.48 1035.35 1035.19 1035.00
1031.70 1031.99 1032.24 1032.49 1032.73 1032.99 1033.27 1033.55 1033.82 1034.06 1034.25 1034.38 1034.44 1034.45 1034.43 1034.38 1034.34 1034.32 1034.32 1034.34 1034.38 1034.43 1034.48 1034.51 1034.52 1034.52 1034.51 1034.51 1034.55 1034.62 1034.74 1034.91 1035.11 1035.33 1035.54 1035.73 1035.87 1035.95 1035.98 1035.96 1035.89 1035.80 1035.68
1031.85 1032.11 1032.34 1032.58 1032.83 1033.10 1033.40 1033.71 1034.00 1034.25 1034.45 1034.57 1034.62 1034.61 1034.55 1034.45 1034.35 1034.27 1034.20 1034.16 1034.15 1034.15 1034.16 1034.18 1034.19 1034.21 1034.23 1034.29 1034.38 1034.51 1034.70 1034.92 1035.18 1035.44 1035.70 1035.93 1036.11 1036.24 1036.32 1036.35 1036.34 1036.31 1036.27
1031.98 1032.22 1032.44 1032.67 1032.93 1033.21 1033.53 1033.84 1034.15 1034.40 1034.59 1034.71 1034.73 1034.69 1034.58 1034.44 1034.29 1034.14 1034.01 1033.91 1033.84 1033.79 1033.77 1033.75 1033.76 1033.78 1033.84 1033.93 1034.07 1034.26 1034.50 1034.79 1035.10 1035.42 1035.73 1036.01 1036.24 1036.41 1036.54 1036.62 1036.67 1036.69 1036.70
1032.13 1032.34 1032.55 1032.78 1033.04 1033.34 1033.66 1033.98 1034.28 1034.52 1034.70 1034.79 1034.79 1034.71 1034.57 1034.38 1034.18 1033.99 1033.81 1033.65 1033.53 1033.43 1033.36 1033.31 1033.30 1033.31 1033.37 1033.48 1033.64 1033.87 1034.16 1034.50 1034.86 1035.24 1035.60 1035.92 1036.20 1036.42 1036.59 1036.71 1036.81 1036.88 1036.94
1032.31 1032.50 1032.70 1032.93 1033.19 1033.49 1033.81 1034.12 1034.41 1034.63 1034.79 1034.85 1034.83 1034.72 1034.55 1034.34 1034.11 1033.88 1033.66 1033.46 1033.29 1033.15 1033.03 1032.93 1032.87 1032.85 1032.87 1032.97 1033.13 1033.37 1033.68 1034.04 1034.44 1034.85 1035.26 1035.63 1035.95 1036.22 1036.44 1036.61 1036.75 1036.86 1036.97
1032.55 1032.73 1032.92 1033.14 1033.40 1033.69 1034.00 1034.30 1034.56 1034.76 1034.89 1034.93 1034.88 1034.76 1034.58 1034.36 1034.11 1033.87 1033.63 1033.41 1033.20 1033.00 1032.82 1032.66 1032.53 1032.44 1032.40 1032.44 1032.56 1032.76 1033.05 1033.41 1033.83 1034.26 1034.70 1035.12 1035.49 1035.81 1036.07 1036.29 1036.48 1036.65 1036.80
1032.88 1033.04 1033.22 1033.43 1033.69 1033.97 1034.26 1034.53 1034.77 1034.94 1035.04 1035.06 1034.99 1034.86 1034.68 1034.47 1034.24 1034.00 1033.75 1033.51 1033.27 1033.03 1032.78 1032.54 1032.32 1032.13 1031.99 1031.94 1031.97 1032.10 1032.34 1032.66 1033.05 1033.49 1033.95 1034.39 1034.81 1035.19 1035.51 1035.80 1036.05 1036.27 1036.48
1033.31 1033.45 1033.62 1033.82 1034.06 1034.32 1034.59 1034.84 1035.04 1035.18 1035.26 1035.25 1035.18 1035.06 1034.89 1034.70 1034.48 1034.26 1034.03 1033.78 1033.51 1033.22 1032.91 1032.58 1032.25 1031.95 1031.69 1031.51 1031.42 1031.45 1031.59 1031.84 1032.18 1032.60 1033.05 1033.52 1033.98 1034.41 1034.81 1035.16 1035.49 1035.79 1036.08
1033.84 1033.95 1034.10 1034.29 1034.51 1034.75 1034.99 1035.21 1035.38 1035.49 1035.54 1035.52 1035.45 1035.33 1035.19 1035.02 1034.83 1034.64 1034.42 1034.17 1033.89 1033.56 1033.18 1032.77 1032.33 1031.90 1031.51 1031.19 1030.96 1030.86 1030.89 1031.04 1031.31 1031.68 1032.12 1032.60 1033.09 1033.57 1034.03 1034.47 1034.88 1035.27 1035.65
1034.41 1034.50 1034.64 1034.81 1035.01 1035.23 1035.44 1035.63 1035.77 1035.85 1035.88 1035.85 1035.77 1035.66 1035.54 1035.39 1035.24 1035.07 1034.87 1034.63 1034.33 1033.97 1033.54 1033.06 1032.53 1031.99 1031.47 1031.01 1030.65 1030.42 1030.32 1030.36 1030.54 1030.85 1031.25 1031.71 1032.22 1032.74 1033.27 1033.78 1034.27 1034.76 1035.22
1034.97 1035.05 1035.17 1035.33 1035.52 1035.72 1035.91 1036.07 1036.18 1036.24 1036.24 1036.20 1036.12 1036.01 1035.89 1035.77 1035.64 1035.49 1035.31 1035.08 1034.78 1034.41 1033.95 1033.41 1032.81 1032.19 1031.57 1031.00 1030.52 1030.16 1029.94 1029.88 1029.96 1030.18 1030.53 1030.96 1031.46 1032.00 1032.56 1033.13 1033.70 1034.26 1034.80
1035.46 1035.54 1035.65 1035.81 1035.99 1036.18 1036.35 1036.49 1036.57 1036.61 1036.59 1036.53 1036.44 1036.33 1036.22 1036.10 1035.99 1035.85 1035.69 1035.47 1035.18 1034.80 1034.33 1033.77 1033.14 1032.47 1031.79 1031.14 1030.58 1030.12 1029.80 1029.63 1029.62 1029.75 1030.02 1030.40 1030.86 1031.39 1031.96 1032.56 1033.17 1033.78 1034.39
1035.84 1035.92 1036.05 1036.21 1036.39 1036.57 1036.73 1036.85 1036.92 1036.93 1036.89 1036.81 1036.71 1036.59 1036.47 1036.35 1036.24 1036.11 1035.96 1035.75 1035.48 1035.11 1034.65 1034.10 1033.47 1032.79 1032.09 1031.41 1030.79 1030.27 1029.87 1029.62 1029.52 1029.56 1029.75 1030.05 1030.46 1030.95 1031.49 1032.08 1032.70 1033.33 1033.97
1036.09 1036.19 1036.34 1036.51 1036.70 1036.89 1037.04 1037.14 1037.19 1037.18 1037.12 1037.02 1036.89 1036.75 1036.62 1036.49 1036.37 1036.24 1036.09 1035.90 1035.64 1035.30 1034.87 1034.35 1033.75 1033.09 1032.41 1031.73 1031.10 1030.55 1030.11 1029.80 1029.62 1029.59 1029.69 1029.92 1030.25 1030.67 1031.16 1031.71 1032.30 1032.93 1033.56
1036.22 1036.36 1036.54 1036.73 1036.93 1037.11 1037.26 1037.35 1037.37 1037.34 1037.25 1037.13 1036.98 1036.82 1036.66 1036.52 1036.39 1036.25 1036.10 1035.92 1035.68 1035.36 1034.97 1034.49 1033.94 1033.33 1032.69 1032.05 1031.44 1030.90 1030.44 1030.09 1029.87 1029.77 1029.80 1029.95 1030.20 1030.55 1030.97 1031.47 1032.01 1032.60 1033.21
1036.30 1036.48 1036.68 1036.89 1037.09 1037.27 1037.40 1037.47 1037.47 1037.41 1037.30 1037.15 1036.97 1036.79 1036.62 1036.45 1036.30 1036.16 1036.00 1035.82 1035.58 1035.29 1034.93 1034.50 1034.00 1033.45 1032.87 1032.28 1031.71 1031.19 1030.75 1030.40 1030.15 1030.02 1029.99 1030.08 1030.27 1030.55 1030.92 1031.35 1031.84 1032.38 1032.94
1036.37 1036.58 1036.80 1037.02 1037.22 1037.37 1037.47 1037.51 1037.49 1037.40 1037.26 1037.09 1036.89 1036.69 1036.50 1036.31 1036.15 1035.98 1035.81 1035.62 1035.39 1035.11 1034.77 1034.37 1033.91 1033.41 1032.88 1032.35 1031.83 1031.36 1030.95 1030.61 1030.37 1030.23 1030.19 1030.24 1030.40 1030.63 1030.95 1031.34 1031.78 1032.28 1032.80
1036.49 1036.71 1036.93 1037.14 1037.31 1037.43 1037.49 1037.49 1037.43 1037.30 1037.14 1036.95 1036.73 1036.52 1036.31 1036.11 1035.93 1035.74 1035.55 1035.34 1035.10 1034.81 1034.47 1034.09 1033.66 1033.19 1032.70 1032.22 1031.75 1031.32 1030.95 1030.66 1030.44 1030.32 1030.29 1030.35 1030.49 1030.72 1031.03 1031.39 1031.81 1032.27 1032.76
Thickness
5447 5446 5445 5445 5445 5444 5443 5443 5443 5442 5442 5441 5440 5439 5439 5439 5439 5440 5440 5440 5440 5441 5441 5441 5442 5442 5444 5446 5446 5447 5449 5449 5451 5453 5452 5452 5451 5451 5450 5451 5452 5453 5453
5435 5434 5433 5431 5431 5430 5430 5430 5429 5429 5429 5428 5428 5427 5427 5426 5426 5427 5428 5428 5428 5428 5428 5428 5429 5430 5431 5433 5433 5434 5435 5435 5436 5438 5438 5437 5437 5438 5438 5438 5439 5439 5440
5423 5421 5420 5419 5417 5417 5417 5416 5416 5416 5416 5415 5415 5415 5415 5414 5414 5414 5415 5415 5415 5415 5415 5415 5416 5417 5417 5418 5419 5420 5421 5421 5421 5422 5422 5423 5422 5423 5423 5423 5424 5425 5425
5411 5409 5408 5406 5405 5404 5403 5403 5403 5402 5402 5403 5402 5402 5402 5402 5402 5402 5402 5402 5401 5402 5402 5402 5402 5403 5404 5404 5405 5406 5406 5406 5406 5406 5406 5407 5407 5407 5407 5408 5409 5410 5411
5399 5397 5396 5394 5393 5392 5391 5390 5390 5390 5390 5390 5390 5389 5389 5389 5389 5389 5389 5389 5389 5389 5389 5389 5390 5390 5391 5391 5392 5392 5392 5392 5392 5392 5392 5392 5393 5392 5393 5394 5395 5396 5397
5387 5385 5384 5382 5381 5380 5379 5378 5377 5377 5377 5377 5376 5376 5376 5376 5376 5376 5376 5376 5376 5376 5376 5376 5376 5377 5377 5377 5378 5378 5379 5379 5379 5379 5380 5380 5381 5381 5380 5380 5380 5381 5383
5374 5373 5371 5369 5368 5367 5366 5365 5364 5364 5364 5364 5363 5363 5363 5363 5363 5363 5364 5364 5364 5363 5363 5363 5363 5363 5363 5363 5364 5364 5365 5365 5366 5366 5367 5367 5367 5368 5367 5367 5366 5366 5367
5361 5359 5358 5356 5355 5354 5352 5352 5351 5351 5351 5351 5351 5351 5350 5350 5350 5351 5352 5351 5350 5350 5350 5349 5350 5350 5350 5350 5351 5351 5351 5351 5352 5353 5354 5355 5354 5353 5353 5353 5352 5351 5352
5347 5346 5344 5343 5341 5340 5339 5339 5338 5338 5338 5338 5338 5338 5337 5337 5337 5337 5338 5337 5337 5336 5336 5336 5336 5336 5337 5337 5337 5338 5338 5338 5338 5339 5340 5340 5340 5340 5339 5338 5337 5336 5337
5335 5333 5332 5330 5329 5328 5327 5326 5326 5325 5325 5325 5324 5324 5324 5324 5324 5324 5323 5323 5323 5323 5322 5322 5322 5323 5324 5324 5324 5325 5326 5326 5325 5326 5326 5326 5326 5326 5326 5325 5324 5322 5322
5321 5319 5318 5317 5316 5315 5314 5313 5312 5312 5311 5311 5311 5311 5311 5311 5311 5311 5310 5309 5309 5309 5308 5308 5308 5309 5309 5311 5311 5312 5314 5314 5313 5312 5313 5313 5312 5312 5312 5312 5311 5310 5309
5306 5305 5304 5304 5303 5303 5301 5300 5299 5298 5298 5297 5297 5297 5297 5297 5297 5297 5296 5296 5296 5296 5295 5295 5295 5296 5297 5298 5298 5299 5300 5300 5299 5299 5299 5299 5299 5299 5300 5299 5298 5297 5297
5292 5291 5290 5290 5290 5290 5289 5288 5286 5285 5284 5284 5284 5284 5284 5284 5283 5282 5282 5282 5282 5283 5283 5283 5283 5284 5285 5286 5286 5286 5286 5285 5285 5286 5286 5287 5287 5287 5286 5285 5285 5284 5284
5278 5278 5278 5277 5277 5277 5276 5275 5274 5273 5272 5271 5271 5271 5271 5271 5270 5269 5269 5269 5269 5269 5270 5270 5271 5271 5272 5273 5273 5273 5272 5272 5272 5273 5273 5273 5273 5273 5272 5272 5271 5271 5270
5264 5264 5264 5264 5264 5264 5264 5262 5262 5262 5261 5260 5260 5260 5259 5260 5260 5259 5258 5258 5258 5257 5258 5258 5258 5257 5258 5258 5259 5259 5258 5258 5258 5259 5259 5260 5260 5260 5260 5259 5258 5257 5257
5251 5251 5251 5251 5251 5251 5251 5251 5250 5250 5251 5250 5250 5250 5250 5251 5250 5250 5249 5249 5248 5247 5246 5246 5245 5244 5244 5244 5244 5245 5245 5246 5246 5247 5247 5247 5248 5248 5248 5246 5245 5245 5246
5238 5238 5237 5237 5237 5237 5237 5237 5237 5238 5238 5238 5238 5238 5239 5240 5240 5239 5238 5238 5237 5236 5234 5233 5232 5232 5232 5232 5232 5233 5234 5235 5235 5236 5236 5236 5236 5237 5236 5235 5235 5234 5234
5225 5225 5225 5224 5224 5224 5224 5224 5224 5224 5225 5225 5225 5226 5227 5228 5228 5227 5226 5225 5224 5222 5221 5221 5220 5220 5220 5220 5221 5221 5223 5224 5224 5225 5226 5226 5225 5225 5225 5225 5225 5224 5224
5213 5213 5213 5212 5212 5212 5211 5211 5211 5211 5211 5212 5213 5213 5213 5214 5214 5214 5214 5212 5211 5211 5211 5210 5209 5209 5209 5209 5210 5210 5212 5212 5213 5214 5215 5215 5215 5215 5215 5215 5214 5214 5213
5202 5202 5201 5201 5200 5199 5199 5198 5199 5199 5199 5199 5200 5200 5201 5200 5201 5201 5200 5200 5200 5200 5200 5200 5200 5199 5199 5199 5200 5200 5201 5202 5202 5203 5204 5205 5205 5205 5205 5205 5204 5203 5203
5192 5191 5190 5189 5189 5188 5187 5187 5187 5186 5187 5188 5188 5189 5190 5190 5190 5190 5190 5190 5189 5190 5190 5190 5190 5190 5190 5190 5190 5190 5190 5191 5192 5193 5193 5194 5195 5195 5196 5195 5194 5194 5193
5183 5181 5180 5179 5179 5178 5177 5176 5176 5176 5176 5176 5177 5177 5179 5178 5179 5179 5179 5179 5179 5179 5179 5179 5180 5180 5180 5180 5180 5180 5181 5182 5182 5183 5183 5184 5184 5185 5185 5185 5185 5184 5183
5174 5173 5172 5170 5169 5168 5167 5166 5166 5166 5166 5166 5167 5168 5168 5168 5168 5168 5169 5169 5169 5169 5170 5170 5170 5170 5170 5170 5170 5171 5171 5173 5173 5173 5173 5174 5174 5175 5175 5175 5176 5175 5175
5164 5163 5162 5161 5160 5158 5157 5156 5156 5156 5157 5157 5158 5158 5159 5159 5159 5159 5159 5159 5159 5159 5160 5160 5160 5161 5161 5161 5161 5161 5162 5163 5164 5164 5164 5164 5165 5165 5166 5167 5167 5167 5167
5155 5154 5153 5152 5150 5149 5148 5148 5147 5147 5147 5148 5148 5149 5149 5149 5149 5149 5149 5149 5149 5149 5149 5150 5150 5151 5151 5152 5152 5153 5154 5155 5156 5156 5156 5157 5157 5157 5158 5158 5158 5158 5158
5146 5145 5143 5142 5141 5140 5139 5139 5138 5138 5138 5138 5138 5139 5139 5140 5140 5139 5139 5139 5139 5139 5139 5140 5141 5141 5142 5143 5144 5145 5147 5148 5149 5150 5150 5149 5150 5150 5150 5150 5150 5150 5150